Location: *
(42.3511°S, 177.0274°W)
Time: 13:33:08
(UTC+00:00)

Daily predictions for brighter satellites

Satellite Brightness Start Highest point End
(mag) Time Altitude Azimuth Time Altitude Azimuth Time Altitude Azimuth
Okean O Rocket 4.1 15:54:44 10° ENE 15:57:34 20° ESE 15:57:34 20° ESE
USA 267 3.8 15:53:44 10° SE 15:58:32 52° SE 15:58:32 52° SE
CZ-4B R/B 4.4 16:10:22 10° NE 16:15:26 39° ESE 16:18:03 25° SSE
CZ-4C R/B 2.8 16:26:47 74° WNW 16:27:30 81° SW 16:34:38 10° SE
ATLAS 2AS CENTAUR R/B 4.5 16:30:06 15° S 16:30:06 15° S 16:31:47 10° SSE
USA 234 3.4 16:28:05 10° ENE 16:34:37 70° SE 16:36:05 54° SSW
Cosmos 2297 Rocket 3.3 16:32:24 27° S 16:34:54 40° ESE 16:40:13 10° NE
CZ-4B DEB 4.3 16:37:27 10° N 16:42:07 63° NNW 16:42:07 63° NNW
Cosmos 2279 Rocket 3.9 16:49:32 60° SW 16:50:29 68° W 16:56:42 10° N
BREEZE-M DEB (TANK) 3.5 16:52:50 33° E 16:52:50 33° E 16:54:30 10° ENE
Lacrosse 4 Rocket 2.6 16:53:22 37° N 16:53:22 37° N 16:56:09 10° NNE
Envisat 3.6 16:48:15 10° NNE 16:53:14 55° ESE 16:57:33 14° S
PAYLOAD B 4.1 16:51:28 10° N 16:56:58 69° WNW 16:57:37 63° WSW
Lacrosse 5 rocket 2.6 16:56:45 29° NNE 16:57:46 35° NE 17:01:23 10° ESE
H-2A R/B 4.1 16:55:01 10° N 16:57:14 33° N 16:57:14 33° N
Timation 2 Rocket 4.2 17:07:22 41° WSW 17:09:32 57° WNW 17:16:14 10° N
Cosmos 1656 3.7 17:07:04 10° NNW 17:12:39 81° ENE 17:18:23 10° SSE
Okean 2 3.3 17:13:21 10° NNW 17:17:28 67° W 17:21:39 10° S
Cosmos 2227 Rocket 2.4 17:14:30 20° SSW 17:18:32 73° ESE 17:24:12 10° NNE
Cosmos 1733 3.4 17:19:54 54° NW 17:19:54 54° NW 17:23:09 10° N
COSMO-SKYMED 1 4.5 17:17:28 10° SSE 17:21:27 32° E 17:25:22 10° NNE
Cosmos 1271 Rocket 2.5 17:18:53 10° NNW 17:22:40 82° W 17:26:33 10° S
Cosmos 921 Rocket 2.8 17:19:37 10° NNW 17:23:51 85° WSW 17:28:07 10° SSE
Cosmos 2219 3.2 17:26:08 26° SW 17:29:31 67° WNW 17:35:13 10° NNE
Cosmos 1340 Rocket 4.2 17:26:38 10° S 17:30:29 39° ESE 17:34:19 10° NE
Meteor 1-21 4.3 17:28:04 10° N 17:33:56 89° WSW 17:39:48 10° S
Okean O Rocket 2.0 17:29:50 10° N 17:34:03 41° W 17:35:01 36° WSW
Cosmos 1544 Rocket 3.8 17:31:38 10° S 17:36:03 71° E 17:40:24 10° NNE
NOSS 3-1 (C) 4.2 17:31:45 13° SSW 17:37:12 46° SE 17:42:33 10° ENE
BREEZE-M DEB (TANK) 4.4 17:33:11 25° WSW 17:37:57 45° SSW 17:41:40 10° ESE
Cosmos 1980 Rocket 3.8 17:33:15 10° N 17:38:24 38° ENE 17:43:34 10° SE
Cosmos 1758 3.6 17:36:02 10° S 17:40:07 68° E 17:44:10 10° NNE
CZ-4 R/B 3.3 17:36:48 10° NE 17:40:28 31° ESE 17:44:14 10° S
SMAP 3.2 17:36:30 10° N 17:41:04 52° W 17:44:43 16° SSW
ADEOS Rocket 2.9 17:36:37 10° SSE 17:42:16 78° ENE 17:47:48 10° N
USA 267 4.0 17:37:01 10° SE 17:42:48 34° SSW 17:45:54 23° WSW
ASTEX 1 4.2 17:39:08 10° NNE 17:43:54 53° E 17:48:44 10° S
SJ 16-02 2.0 17:41:28 10° S 17:45:52 55° ESE 17:50:14 10° NNE
Cosmos 1707 3.0 17:41:59 10° N 17:45:54 74° E 17:49:55 10° SSE
AQUARIUS 4.3 17:42:13 10° N 17:46:37 50° W 17:50:25 14° SSW
Cosmos 1025 Rocket 3.2 17:45:17 10° N 17:49:34 74° E 17:53:56 10° SSE
Cosmos 192 4.2 17:45:48 10° NNW 17:50:43 71° WSW 17:55:43 10° SSE
Cosmos 1689 Rocket 3.2 17:52:04 27° WNW 17:52:04 27° WNW 17:53:50 10° NW
USA 229 DEB 4.3 17:45:05 11° SSW 17:51:44 53° SE 17:58:06 10° NE
USA 229 4.3 17:45:12 10° SSW 17:51:51 53° SE 17:58:13 10° ENE
Cosmos 1939 Rocket 3.9 17:48:52 10° NNE 17:52:43 47° ESE 17:56:41 10° S
Feng Yun 1-1 Rocket 4.1 17:48:09 10° N 17:53:34 73° WNW 17:59:09 10° SSW
Okean-O 3.1 17:49:42 10° NNE 17:54:06 62° ESE 17:58:34 10° S
Cosmos 2026 Rocket 3.9 17:49:46 10° N 17:55:53 87° W 18:02:09 10° S
CZ-4B R/B 4.0 17:51:17 10° NNW 17:56:03 30° W 17:59:56 14° SW
Cosmos 1375 Rocket 4.5 17:51:54 13° SSW 17:57:44 84° WNW 18:04:08 10° NNE
Cosmos 1092 Rocket 4.0 17:52:21 10° NNW 17:58:32 62° W 18:04:45 10° S
Helios 1A Rocket 3.0 17:56:53 10° N 18:00:52 55° W 18:04:56 10° SSW
YAOGAN 6 3.5 17:59:15 10° NNW 18:02:29 29° W 18:04:11 20° SW
H-2A R/B 4.2 17:59:24 10° ENE 18:03:08 22° ESE 18:06:54 10° SSE
NOSS 3-1 (A) 4.3 17:57:19 10° SSW 18:03:32 44° SE 18:08:52 10° ENE
Cosmos 1697 Rocket 2.7 18:03:47 10° NW 18:09:22 66° WSW 18:15:03 10° SSE
SKYMED 2 3.5 18:05:12 10° S 18:09:38 77° WSW 18:14:00 10° NNW
Cosmos 2360 4.2 18:04:41 10° NNW 18:10:26 88° WSW 18:16:14 10° SSE
Cosmos 1726 2.2 18:07:25 10° S 18:11:11 79° E 18:14:55 10° N
Cosmos 1975 Rocket 4.3 18:12:22 10° WNW 18:15:52 22° WSW 18:19:24 10° SSW
CZ-4C R/B 3.8 18:12:04 14° W 18:17:01 25° SW 18:22:27 10° SSE
USA 234 4.0 18:12:00 10° NNE 18:17:53 35° NW 18:23:27 12° WSW
Cosmos 2297 Rocket 3.0 18:14:15 12° SW 18:18:48 31° WNW 18:23:43 10° NNW
Cosmos 1953 2.4 18:26:05 10° SSW 18:30:09 61° W 18:34:09 10° N
Cosmos 1455 Rocket 4.4 18:28:14 10° SW 18:31:29 20° W 18:34:42 10° NW
Envisat 4.4 18:29:07 10° NW 18:32:36 18° W 18:36:06 10° SW
Cosmos 1470 4.1 18:33:37 10° SW 18:36:36 20° W 18:39:32 10° NW
Lacrosse 5 rocket 2.0 18:33:27 10° W 18:36:56 31° SSW 18:40:36 10° SSE
USA 116 3.1 18:36:53 10° S 18:40:06 80° WSW 18:43:15 10° NNW
